Temperature
17 17 18 17 17 17 18 18 18 18 18 18 18 18 18 18 18 18 18 18 18 18 18 18 18 18 18 18 18 18 18 18 18 18 18 18 18 18 18 18 18 17 18
17 17 17 17 17 17 17 17 17 17 17 17 17 17 17 17 17 17 18 18 18 18 18 18 18 18 18 18 18 18 18 18 18 18 18 18 18 18 18 18 18 18 18
17 17 17 17 17 17 17 17 17 17 17 17 17 17 17 17 17 17 17 17 17 17 17 17 18 18 18 18 18 18 18 18 18 18 18 17 17 18 18 18 18 18 18
17 17 17 17 17 17 17 17 17 17 17 17 17 17 17 17 17 17 17 17 17 17 17 17 17 18 18 18 18 18 18 18 18 18 17 17 17 18 18 18 18 18 18
17 16 16 17 17 17 17 17 17 17 16 17 17 17 17 17 16 17 17 17 17 17 17 17 17 17 17 17 17 17 17 18 17 17 17 17 17 17 18 18 18 18 18
16 16 16 17 17 17 17 17 16 16 16 16 16 16 16 16 16 16 16 17 17 17 17 17 17 17 17 17 17 17 17 17 17 17 16 17 17 17 17 17 17 17 18
16 16 16 16 16 16 16 16 16 16 16 16 16 16 16 16 16 16 16 16 16 17 17 17 17 17 17 17 17 17 17 17 16 16 16 16 17 17 17 17 17 17 17
16 16 16 16 16 16 16 16 16 16 16 16 16 16 16 16 16 16 16 16 16 16 16 16 16 17 17 17 17 17 17 17 16 16 16 16 17 17 17 17 17 17 17
16 16 16 16 16 16 16 16 16 16 16 16 16 16 16 16 16 16 16 16 16 16 16 16 16 16 16 16 16 17 17 17 16 16 16 16 17 17 17 17 17 17 17
16 16 16 16 16 16 16 16 16 16 16 16 16 16 16 16 16 15 15 16 16 16 16 16 16 16 16 16 16 16 16 16 16 16 16 16 16 17 17 17 17 17 17
16 16 16 16 16 16 16 16 16 16 16 16 15 16 16 15 15 15 15 16 16 16 16 16 16 16 16 16 16 16 16 16 16 16 16 16 16 16 16 17 17 17 17
17 17 16 16 16 16 16 15 15 15 15 15 15 15 16 16 15 15 16 16 16 16 16 16 16 16 16 16 16 16 16 16 16 16 16 16 16 16 16 17 16 16 16
17 17 17 16 16 16 16 16 15 15 15 15 15 16 16 16 16 15 15 16 16 16 16 16 16 16 16 16 16 16 16 16 16 15 15 16 16 16 16 16 16 16 16
17 17 16 16 16 16 16 16 16 16 16 16 15 16 16 16 16 16 16 16 15 16 16 16 16 15 16 16 16 16 15 15 15 15 16 16 16 16 16 16 16 16 16
17 17 17 16 17 16 16 16 16 16 16 16 15 16 16 16 16 16 16 15 16 15 15 15 15 15 15 15 15 15 15 15 15 15 15 16 16 16 16 16 16 16 16
17 17 17 17 16 16 16 16 16 16 16 16 16 16 16 16 16 16 16 15 15 15 15 15 15 15 15 15 15 15 15 15 15 15 15 15 15 15 16 16 16 16 16
18 17 17 17 17 16 16 16 16 16 16 16 16 16 16 16 16 16 16 16 15 15 15 15 15 15 15 15 15 15 15 15 15 15 15 15 15 15 15 15 15 16 16
18 17 17 17 16 16 16 16 16 16 16 16 16 16 16 16 16 15 15 15 15 15 15 15 15 15 15 15 15 15 15 15 15 15 15 15 15 15 15 15 15 15 16
18 17 17 17 16 16 16 16 16 16 16 16 15 15 16 16 15 15 15 15 15 15 15 15 15 15 15 15 15 15 15 15 14 14 14 14 15 15 15 15 15 15 15
17 17 17 17 16 16 16 16 16 16 15 15 15 15 15 15 15 15 15 15 15 15 15 15 15 15 15 15 15 15 14 14 14 14 14 14 15 15 15 15 15 15 15
17 17 17 17 16 16 16 16 16 15 15 15 15 15 15 15 15 15 15 15 15 15 15 15 15 15 15 14 15 14 14 14 14 14 14 14 14 14 14 15 15 14 14
17 17 17 17 16 16 16 16 15 15 15 15 15 15 15 15 15 15 15 15 15 15 15 15 15 15 15 15 15 15 15 15 14 14 14 14 14 14 14 14 14 14 14
17 17 17 17 16 16 16 16 15 15 15 15 15 15 15 15 15 15 15 15 15 15 15 15 15 15 15 15 15 15 16 16 15 14 14 14 14 14 14 14 14 14 14
18 17 17 17 16 16 16 15 15 15 15 15 15 15 15 15 15 15 15 15 15 15 15 15 15 15 15 15 15 15 15 15 15 15 14 14 14 14 14 14 14 14 14
18 17 17 17 16 16 16 16 15 15 15 15 15 15 15 15 15 15 15 15 15 15 15 15 15 15 15 15 15 15 14 15 15 15 15 14 14 13 14 14 13 14 14
18 17 17 17 16 16 16 15 15 15 15 15 15 15 15 15 15 15 15 15 15 15 15 15 15 15 15 15 15 15 15 15 15 15 15 14 14 13 13 14 13 14 14
Wind_Speed
2 3 6 4 5 6 7 7 7 8 9 9 10 10 10 10 10 9 9 9 9 9 9 9 8 8 8 8 7 7 7 7 7 6 6 6 6 5 5 3 2 2 5
3 4 7 5 5 6 7 7 7 8 9 9 9 9 10 10 10 9 9 9 9 9 9 9 8 8 8 8 8 7 7 6 7 6 4 5 6 5 4 4 4 5 4
4 5 7 7 7 7 7 7 8 8 9 9 9 9 9 9 9 9 9 9 9 9 9 9 8 8 8 8 7 7 7 6 6 4 1 3 6 6 5 4 4 4 4
5 5 7 8 8 8 7 7 7 9 9 9 9 9 9 8 8 8 8 9 9 9 8 8 7 7 7 7 6 6 6 7 5 2 3 6 6 9 6 6 5 5 4
5 6 8 8 8 8 8 7 7 8 9 9 9 9 8 8 8 8 8 8 8 8 7 7 7 7 7 7 6 6 6 6 3 3 6 6 7 9 7 7 6 6 5
6 7 9 8 8 8 9 8 8 9 9 9 9 9 9 9 8 7 8 8 8 8 7 7 6 6 6 6 6 6 6 4 1 6 6 6 8 9 9 8 7 6 6
7 8 10 10 9 9 9 8 9 9 9 9 9 9 10 9 9 8 8 8 8 8 7 6 6 6 6 6 5 6 5 3 4 5 5 7 9 9 9 8 8 7 7
8 8 10 11 11 10 10 9 9 9 9 9 10 10 10 9 8 8 8 8 7 7 6 6 5 5 5 5 6 7 6 5 5 5 6 7 9 8 9 9 9 8 8
8 8 8 10 10 11 10 9 9 9 9 9 9 9 9 8 8 8 8 8 8 7 6 5 5 5 6 6 7 7 6 4 4 5 6 8 9 9 9 9 9 9 8
7 7 7 9 8 9 10 10 10 10 9 9 9 8 7 7 8 7 8 8 7 7 6 6 6 7 7 7 7 6 2 0 6 6 7 9 9 9 9 9 9 9 9
6 6 6 7 7 8 9 8 8 8 8 6 8 6 4 5 7 6 9 8 7 7 7 7 7 7 6 8 7 3 1 5 6 7 9 10 9 9 9 10 10 10 10
6 6 5 5 6 6 6 5 5 6 6 5 6 5 4 5 5 6 8 7 7 7 7 8 6 5 2 6 6 2 5 7 7 8 10 11 10 10 10 11 11 11 11
6 5 4 4 4 5 4 4 4 4 4 4 4 4 3 4 4 4 4 5 6 4 6 6 4 5 6 7 6 7 7 7 7 9 12 12 12 12 12 12 12 12 12
5 5 4 4 4 4 3 3 2 3 3 3 3 3 3 3 3 4 4 4 4 5 5 5 5 7 7 8 8 8 8 7 7 9 13 15 15 14 14 14 13 13 14
5 5 4 3 3 4 3 2 2 2 2 3 3 2 3 3 3 4 4 4 4 4 5 5 5 7 7 8 8 8 9 9 9 9 10 16 16 16 15 15 14 15 15
5 5 4 4 3 3 3 2 3 3 3 3 3 2 3 3 3 3 4 4 4 4 5 5 6 6 6 7 8 8 8 8 9 8 9 11 15 16 17 16 16 16 16
6 6 5 4 3 3 3 3 3 3 3 3 3 3 3 3 3 3 3 4 4 4 5 5 6 6 6 6 7 7 8 8 8 9 9 8 9 14 16 17 17 16 16
6 6 5 4 4 3 3 3 3 3 3 3 3 3 4 4 4 4 3 3 4 4 4 4 4 5 5 5 6 6 6 6 8 8 8 9 9 9 13 16 16 17 17
6 6 6 6 5 4 4 4 3 4 4 4 4 3 3 4 4 4 3 3 4 3 3 4 4 4 5 5 6 5 5 5 6 7 8 9 10 10 10 11 13 16 17
6 5 6 6 5 5 4 4 4 4 4 4 4 4 4 3 4 4 3 3 3 3 3 4 5 4 4 4 5 6 5 5 5 6 7 8 9 10 10 10 9 11 15
7 6 6 7 6 5 4 3 3 3 3 3 3 4 3 3 3 4 2 3 2 3 4 5 5 6 4 3 3 4 5 5 6 5 6 6 7 8 9 10 10 9 9
9 8 7 6 6 5 3 3 3 3 3 3 3 4 3 3 3 3 2 2 2 3 4 4 4 3 3 1 0 1 2 3 4 5 5 5 6 7 8 9 10 9 10
10 10 7 7 7 6 5 4 4 4 3 3 3 3 3 3 3 3 3 2 2 3 3 3 3 3 2 2 1 2 1 1 2 3 4 4 5 5 6 7 9 9 10
11 10 9 8 7 6 6 5 5 3 3 3 2 3 3 3 3 3 3 2 3 2 3 3 2 1 1 1 1 1 2 2 0 2 3 4 4 5 6 6 7 9 10
11 10 9 9 8 7 6 6 5 4 3 3 3 3 3 3 3 3 2 2 2 2 2 2 2 1 1 0 0 1 1 1 1 0 2 2 3 4 4 5 6 7 9
10 10 9 10 9 8 7 7 6 5 5 5 4 3 3 3 3 3 2 2 2 2 2 2 2 1 0 0 0 0 0 0 0 1 1 2 3 3 4 4 5 6 7
Wind_Direction
105 102 101 115 113 108 109 111 114 115 110 110 109 109 109 107 104 99 97 95 90 88 86 83 80 79 81 82 78 74 73 70 66 65 67 66 60 60 58 50 16 83 65
103 103 109 114 111 107 102 103 106 108 110 107 105 101 100 100 100 98 97 94 90 86 84 81 77 74 75 76 74 69 68 67 60 59 63 87 74 57 52 51 25 43 54
96 98 109 104 100 101 103 105 105 101 104 103 102 99 98 98 97 95 94 91 88 83 80 79 76 73 71 70 68 64 65 66 61 57 30 64 78 63 50 50 54 55 47
91 92 91 97 100 100 102 102 104 103 104 101 100 98 97 95 94 95 93 89 85 81 78 77 76 72 70 71 69 65 65 64 56 356 44 49 57 63 50 49 52 55 45
94 89 89 90 95 98 100 102 105 108 104 100 96 94 94 92 91 90 93 89 84 81 78 76 75 71 67 69 69 66 69 68 47 18 49 47 52 57 50 50 51 50 45
97 87 87 84 89 94 96 101 105 106 101 98 97 94 92 89 88 91 90 88 85 78 76 76 73 72 69 68 68 67 69 56 21 51 47 47 54 53 47 48 46 43 38
93 87 88 82 83 86 91 92 96 100 100 98 96 93 91 88 86 84 86 89 88 84 80 77 74 73 69 68 68 71 67 13 48 57 54 53 54 47 43 42 39 35 30
98 96 98 94 83 80 83 87 94 97 97 95 92 91 90 88 86 86 85 86 86 85 80 76 76 74 68 65 69 71 60 354 63 55 59 58 51 44 42 40 36 34 28
100 96 96 99 97 92 84 84 94 96 94 91 88 87 89 90 88 87 86 83 84 82 77 76 77 77 73 67 72 75 69 24 48 53 55 56 47 42 41 38 36 32 28
103 97 95 93 91 93 92 81 81 85 87 88 87 85 93 106 102 98 98 83 79 79 76 77 79 79 77 74 74 74 74 115 56 58 51 55 48 45 44 41 38 33 30
112 104 97 95 92 87 84 88 94 93 90 106 105 101 122 108 100 107 77 78 77 75 74 76 80 83 91 92 78 77 51 67 66 56 52 47 47 49 46 42 39 35 30
122 113 108 103 100 94 86 88 95 93 86 78 75 80 82 84 85 85 96 84 81 86 90 81 90 114 116 94 101 122 72 69 64 63 56 44 46 48 46 43 41 36 31
123 120 118 119 108 103 100 86 84 86 83 78 70 80 84 97 106 97 99 106 99 106 93 100 110 80 77 71 68 70 64 62 61 60 55 45 48 49 48 45 43 38 34
134 124 118 122 123 112 104 94 99 93 87 80 79 75 87 90 94 92 92 88 94 89 80 85 80 79 79 82 76 73 71 62 58 64 58 49 48 48 47 45 43 40 37
146 142 128 125 117 107 101 107 122 108 100 99 84 85 92 100 96 101 100 94 92 91 97 89 92 89 83 77 72 69 69 65 58 61 67 57 49 47 45 44 42 41 40
158 151 143 144 127 121 120 114 100 103 109 95 98 103 101 102 102 103 104 101 98 95 92 101 98 95 86 81 76 70 66 67 62 61 62 67 60 50 43 42 42 42 40
159 157 149 148 135 126 104 90 93 97 94 91 93 104 105 101 108 114 105 110 111 110 107 98 97 98 96 90 81 71 66 60 61 58 55 50 59 60 50 41 41 40 39
164 153 145 146 140 124 112 108 103 99 92 93 94 89 101 108 109 108 106 107 115 117 113 108 108 103 99 89 78 69 70 63 59 56 56 53 48 48 56 48 43 39 38
166 157 151 145 140 128 118 117 106 99 91 95 97 88 91 96 106 110 101 112 120 122 121 118 109 108 103 96 89 78 70 64 55 54 55 54 53 47 47 56 53 44 37
170 167 154 140 145 137 138 132 119 103 96 93 93 90 81 84 89 99 113 124 126 134 128 123 114 104 101 102 96 87 76 72 62 55 53 56 51 47 41 38 44 51 45
177 175 162 157 157 155 153 152 142 127 119 107 87 82 87 89 95 97 110 110 128 131 137 139 132 128 120 122 119 110 95 74 66 60 52 50 55 49 46 42 39 36 45
181 182 175 166 165 168 166 155 146 135 122 106 106 95 84 86 86 95 102 114 129 130 141 140 148 141 133 164 224 166 142 120 76 62 62 53 47 50 45 43 42 39 37
185 186 179 171 170 170 164 153 150 140 143 136 122 101 78 76 78 81 91 102 116 137 144 153 161 157 161 158 6 335 337 74 102 82 61 60 52 48 47 43 42 42 43
185 182 179 176 174 169 170 171 167 163 156 142 134 123 115 96 86 74 84 98 119 125 140 150 148 164 182 185 129 17 6 32 314 122 99 74 60 53 47 43 44 45 44
178 178 177 173 172 171 177 171 177 172 159 147 144 137 130 109 99 93 90 104 112 116 129 143 149 182 184 226 149 119 76 103 319 44 102 94 80 63 50 43 45 45 46
175 175 173 173 174 171 178 180 183 174 170 161 161 152 148 133 122 110 104 103 109 113 121 131 142 143 143 105 280 235 244 332 87 68 99 104 88 74 61 50 48 48 50
Height
1541 1541 1539 1540 1540 1541 1541 1542 1542 1543 1543 1543 1543 1544 1544 1544 1544 1544 1544 1544 1544 1544 1544 1544 1545 1545 1545 1544 1544 1543 1543 1543 1542 1542 1541 1541 1540 1540 1540 1539 1540 1540 1539
1541 1541 1540 1541 1541 1542 1542 1542 1542 1543 1543 1543 1544 1544 1544 1545 1545 1545 1545 1545 1545 1546 1545 1545 1546 1546 1545 1545 1545 1544 1544 1543 1543 1543 1542 1542 1541 1541 1540 1540 1540 1540 1539
1542 1542 1541 1541 1541 1542 1542 1543 1543 1543 1544 1544 1544 1545 1545 1545 1546 1546 1546 1546 1546 1546 1546 1546 1546 1546 1546 1546 1546 1545 1545 1544 1544 1544 1543 1544 1542 1541 1541 1540 1540 1540 1540
1542 1543 1542 1542 1542 1542 1543 1543 1544 1544 1544 1545 1545 1545 1545 1546 1546 1546 1547 1547 1547 1547 1547 1547 1547 1547 1547 1547 1547 1546 1546 1545 1545 1545 1545 1545 1544 1542 1541 1541 1540 1540 1540
1543 1543 1543 1542 1543 1543 1543 1544 1544 1545 1545 1545 1546 1546 1546 1546 1546 1547 1547 1547 1547 1547 1548 1548 1548 1548 1548 1548 1547 1547 1547 1546 1546 1546 1546 1545 1544 1543 1542 1541 1541 1540 1540
1544 1544 1543 1543 1543 1544 1544 1544 1545 1545 1546 1546 1546 1546 1547 1547 1547 1547 1547 1547 1547 1548 1548 1548 1548 1548 1548 1548 1548 1548 1548 1547 1548 1547 1546 1546 1545 1543 1543 1542 1541 1541 1540
1545 1545 1545 1544 1544 1545 1545 1545 1546 1546 1547 1547 1547 1547 1548 1548 1547 1547 1548 1548 1548 1548 1548 1549 1549 1549 1549 1549 1549 1549 1548 1548 1549 1548 1548 1547 1545 1544 1544 1543 1542 1541 1540
1546 1547 1546 1545 1546 1546 1546 1547 1547 1547 1547 1548 1548 1548 1549 1548 1549 1549 1549 1549 1549 1549 1549 1549 1549 1550 1550 1550 1550 1549 1549 1549 1550 1550 1549 1548 1546 1545 1545 1544 1543 1542 1541
1548 1548 1549 1548 1548 1547 1547 1548 1548 1549 1549 1549 1550 1550 1550 1550 1550 1550 1550 1550 1550 1550 1550 1550 1550 1551 1551 1551 1551 1551 1550 1550 1551 1551 1551 1549 1547 1546 1545 1544 1543 1542 1541
1549 1550 1550 1550 1550 1551 1550 1550 1550 1550 1551 1551 1551 1551 1552 1552 1552 1552 1552 1551 1551 1551 1551 1551 1552 1552 1552 1552 1552 1552 1552 1552 1552 1552 1551 1550 1548 1547 1546 1545 1544 1543 1541
1551 1551 1551 1552 1552 1552 1552 1552 1552 1552 1553 1553 1553 1553 1554 1555 1555 1555 1554 1553 1553 1553 1553 1553 1553 1553 1553 1553 1553 1553 1553 1554 1553 1553 1551 1550 1549 1548 1547 1546 1545 1543 1542
1552 1553 1553 1553 1553 1553 1553 1554 1554 1555 1555 1555 1555 1555 1556 1556 1556 1556 1555 1555 1555 1555 1555 1555 1555 1555 1555 1555 1554 1554 1555 1555 1554 1554 1552 1551 1550 1549 1548 1547 1545 1544 1542
1553 1553 1554 1554 1554 1554 1555 1555 1555 1556 1556 1557 1556 1557 1557 1557 1558 1558 1558 1558 1557 1557 1557 1557 1557 1557 1557 1557 1556 1556 1556 1556 1555 1555 1553 1552 1551 1550 1549 1548 1547 1545 1543
1554 1554 1555 1555 1556 1556 1556 1556 1556 1557 1558 1558 1558 1559 1559 1559 1559 1559 1559 1559 1559 1559 1558 1559 1559 1559 1559 1558 1558 1558 1557 1557 1557 1556 1554 1554 1553 1551 1550 1549 1548 1546 1544
1554 1555 1556 1556 1557 1557 1557 1557 1558 1558 1559 1559 1559 1560 1560 1560 1561 1561 1561 1560 1560 1560 1560 1560 1560 1560 1560 1560 1560 1559 1559 1558 1558 1557 1556 1555 1554 1553 1552 1550 1549 1547 1545
1555 1556 1556 1557 1558 1558 1559 1559 1559 1560 1560 1560 1560 1561 1561 1561 1561 1562 1562 1562 1562 1562 1562 1562 1562 1562 1562 1561 1561 1561 1560 1560 1559 1559 1558 1557 1556 1554 1553 1552 1550 1549 1546
1555 1556 1557 1558 1559 1559 1560 1560 1560 1561 1561 1561 1561 1562 1562 1562 1562 1563 1563 1563 1563 1563 1563 1563 1563 1563 1563 1563 1563 1562 1562 1561 1561 1560 1560 1559 1558 1556 1555 1553 1552 1550 1548
1555 1556 1557 1558 1559 1560 1560 1561 1562 1562 1562 1562 1562 1563 1563 1563 1563 1563 1564 1564 1564 1564 1564 1564 1564 1565 1564 1564 1564 1564 1563 1563 1562 1562 1561 1560 1559 1558 1556 1555 1553 1552 1550
1555 1556 1557 1558 1559 1560 1561 1561 1562 1562 1562 1563 1563 1563 1564 1564 1564 1564 1564 1564 1565 1565 1565 1565 1566 1566 1566 1565 1565 1565 1565 1564 1564 1563 1563 1562 1561 1560 1558 1556 1555 1553 1551
1554 1556 1557 1558 1560 1560 1561 1562 1562 1563 1563 1564 1564 1564 1564 1565 1565 1565 1565 1565 1565 1565 1566 1566 1566 1566 1566 1566 1567 1566 1566 1566 1565 1565 1564 1563 1562 1561 1560 1558 1557 1555 1553
1553 1555 1557 1558 1559 1560 1561 1563 1563 1564 1564 1564 1565 1565 1565 1565 1565 1565 1565 1566 1566 1566 1566 1567 1567 1567 1567 1568 1568 1568 1568 1567 1567 1566 1565 1565 1564 1563 1562 1560 1559 1557 1556
1552 1554 1556 1558 1559 1560 1561 1563 1563 1564 1565 1565 1565 1566 1566 1566 1566 1566 1566 1566 1566 1566 1567 1567 1567 1568 1568 1568 1569 1569 1569 1571 1568 1568 1567 1566 1566 1565 1563 1562 1561 1559 1557
1551 1553 1555 1557 1558 1560 1561 1562 1563 1564 1565 1566 1566 1566 1566 1566 1566 1566 1566 1567 1566 1567 1567 1568 1568 1569 1569 1569 1570 1570 1570 1570 1570 1570 1568 1568 1567 1566 1565 1564 1563 1561 1559
1549 1552 1554 1556 1558 1560 1561 1562 1564 1565 1566 1566 1567 1567 1567 1567 1567 1567 1567 1567 1567 1567 1568 1568 1569 1569 1569 1570 1570 1569 1570 1570 1571 1571 1571 1570 1568 1567 1567 1566 1564 1563 1561
1547 1550 1552 1555 1557 1559 1560 1562 1563 1565 1566 1566 1566 1567 1567 1567 1567 1567 1567 1567 1568 1568 1568 1568 1569 1569 1569 1570 1570 1570 1570 1570 1571 1571 1571 1571 1570 1569 1568 1567 1566 1565 1563
1545 1548 1551 1553 1556 1558 1560 1561 1563 1564 1565 1566 1567 1567 1568 1568 1568 1568 1568 1568 1568 1569 1569 1569 1569 1569 1569 1570 1570 1571 1571 1571 1571 1571 1571 1571 1571 1571 1569 1568 1567 1566 1565